When you browse on this site, cookies collect data to enhance your experience and personalize the content and advertising you see.
Visit our Privacy Policy to learn more. By continuing to use the site, you agree to this use of cookies and data.
  • In United Kingdom
  • List of Countries
  • For 7 days
  • Water Temperature
  • Weather Map
  • Weather Widgets
  • user-avatar
    Login

    Hourly Weather Aliabad

    Today, 16 September, Monday

    Time Temperature Precipitation Wind Pressure Humidity
    00:00 +22°C° 0 mm 1 mps 743 mmHg 58%
    01:00 +21°C° 0 mm 1 mps 743 mmHg 61%
    02:00 +21°C° 0 mm 1 mps 743 mmHg 65%
    03:00 +20°C° 0 mm 1 mps 743 mmHg 69%
    04:00 +20°C° 0 mm 1 mps 743 mmHg 71%
    05:00 +20°C° 0 mm 1 mps 743 mmHg 74%
    06:00 +20°C° 0 mm 1 mps 744 mmHg 76%
    07:00 +21°C° 0 mm 1 mps 743 mmHg 71%
    08:00 +23°C° 0 mm 2 mps 743 mmHg 67%
    09:00 +25°C° 0 mm 2 mps 743 mmHg 62%
    10:00 +26°C° 0 mm 2 mps 742 mmHg 58%
    11:00 +27°C° 0 mm 3 mps 742 mmHg 55%
    12:00 +28°C° 0 mm 3 mps 741 mmHg 51%
    13:00 +28°C° 0 mm 2 mps 741 mmHg 50%
    14:00 +29°C° 0 mm 2 mps 740 mmHg 50%
    15:00 +29°C° 0 mm 2 mps 740 mmHg 49%
    16:00 +28°C° 0 mm 1 mps 739 mmHg 53%
    17:00 +27°C° 0 mm 1 mps 739 mmHg 57%
    18:00 +26°C° 0 mm 1 mps 739 mmHg 61%
    19:00 +25°C° 0 mm 1 mps 739 mmHg 62%
    20:00 +25°C° 0 mm 1 mps 739 mmHg 63%
    21:00 +24°C° 0 mm 1 mps 739 mmHg 65%
    22:00 +24°C° 0 mm 1 mps 739 mmHg 67%
    23:00 +23°C° 0 mm 1 mps 738 mmHg 70%

    Tomorrow, 17 September, Tuesday

    Time Temperature Precipitation Wind Pressure Humidity
    00:00 +21°C° 0 mm 0 mps 738 mmHg 73%
    01:00 +22°C° 0 mm 1 mps 738 mmHg 73%
    02:00 +22°C° 0 mm 1 mps 738 mmHg 73%
    03:00 +21°C° 0 mm 1 mps 738 mmHg 73%
    04:00 +21°C° 0 mm 1 mps 737 mmHg 72%
    05:00 +21°C° 0 mm 1 mps 737 mmHg 72%
    06:00 +21°C° 0 mm 1 mps 737 mmHg 71%
    07:00 +23°C° 0 mm 1 mps 737 mmHg 64%
    08:00 +26°C° 0 mm 2 mps 737 mmHg 57%
    09:00 +28°C° 0 mm 2 mps 737 mmHg 50%
    10:00 +29°C° 0 mm 2 mps 737 mmHg 46%
    11:00 +31°C° 0 mm 2 mps 737 mmHg 42%
    12:00 +32°C° 0 mm 2 mps 736 mmHg 38%
    13:00 +34°C° 0 mm 2 mps 736 mmHg 35%
    14:00 +34°C° 0 mm 2 mps 736 mmHg 32%
    15:00 +35°C° 0 mm 2 mps 736 mmHg 29%
    16:00 +32°C° 0 mm 2 mps 736 mmHg 34%
    17:00 +30°C° 0 mm 2 mps 736 mmHg 38%
    18:00 +28°C° 0 mm 3 mps 736 mmHg 43%
    19:00 +26°C° 0.6 mm 3 mps 736 mmHg 51%
    20:00 +25°C° 0.6 mm 3 mps 737 mmHg 59%
    21:00 +22°C° 0.6 mm 3 mps 738 mmHg 67%
    22:00 +23°C° 0.3 mm 2 mps 738 mmHg 69%
    23:00 +22°C° 0.3 mm 1 mps 738 mmHg 72%

    Day after tomorrow, 18 September, Wednesday

    Time Temperature Precipitation Wind Pressure Humidity
    00:00 +20°C° 0.3 mm 0 mps 738 mmHg 75%
    01:00 +21°C° 0 mm 1 mps 738 mmHg 75%
    02:00 +21°C° 0 mm 1 mps 738 mmHg 76%
    03:00 +21°C° 0 mm 1 mps 738 mmHg 76%
    04:00 +21°C° 0 mm 1 mps 739 mmHg 76%
    05:00 +20°C° 0 mm 1 mps 739 mmHg 76%
    06:00 +20°C° 0 mm 1 mps 739 mmHg 75%
    07:00 +21°C° 0 mm 2 mps 740 mmHg 68%
    08:00 +24°C° 0 mm 3 mps 740 mmHg 60%
    09:00 +26°C° 0 mm 3 mps 741 mmHg 53%
    10:00 +28°C° 0 mm 3 mps 740 mmHg 45%
    11:00 +29°C° 0 mm 4 mps 740 mmHg 37%
    12:00 +32°C° 0 mm 4 mps 740 mmHg 30%
    13:00 +32°C° 0 mm 4 mps 740 mmHg 27%
    14:00 +33°C° 0 mm 4 mps 740 mmHg 25%
    15:00 +33°C° 0 mm 4 mps 740 mmHg 23%
    16:00 +30°C° 0 mm 3 mps 740 mmHg 26%
    17:00 +28°C° 0 mm 2 mps 739 mmHg 28%
    18:00 +26°C° 0 mm 2 mps 739 mmHg 31%
    19:00 +25°C° 0 mm 1 mps 740 mmHg 30%
    20:00 +25°C° 0 mm 1 mps 740 mmHg 30%
    21:00 +24°C° 0 mm 1 mps 740 mmHg 29%
    22:00 +23°C° 0 mm 1 mps 740 mmHg 33%
    23:00 +23°C° 0 mm 1 mps 740 mmHg 37%

    19 September, Thursday

    Time Temperature Precipitation Wind Pressure Humidity
    00:00 +22°C° 0 mm 1 mps 739 mmHg 42%
    01:00 +22°C° 0 mm 1 mps 739 mmHg 43%
    02:00 +21°C° 0 mm 1 mps 739 mmHg 45%
    03:00 +21°C° 0 mm 1 mps 739 mmHg 46%
    04:00 +20°C° 0 mm 2 mps 739 mmHg 46%
    05:00 +20°C° 0 mm 2 mps 739 mmHg 46%
    06:00 +20°C° 0 mm 2 mps 739 mmHg 45%
    07:00 +23°C° 0 mm 2 mps 739 mmHg 40%
    08:00 +26°C° 0 mm 2 mps 740 mmHg 36%
    09:00 +28°C° 0 mm 3 mps 740 mmHg 31%
    10:00 +30°C° 0 mm 3 mps 740 mmHg 27%
    11:00 +33°C° 0 mm 3 mps 740 mmHg 24%
    12:00 +34°C° 0 mm 4 mps 740 mmHg 20%
    13:00 +34°C° 0 mm 4 mps 740 mmHg 19%
    14:00 +35°C° 0 mm 4 mps 740 mmHg 18%
    15:00 +35°C° 0 mm 4 mps 740 mmHg 18%
    16:00 +33°C° 0 mm 3 mps 740 mmHg 21%
    17:00 +30°C° 0 mm 3 mps 740 mmHg 24%
    18:00 +28°C° 0 mm 2 mps 740 mmHg 28%
    19:00 +27°C° 0 mm 2 mps 741 mmHg 31%
    20:00 +25°C° 0 mm 3 mps 741 mmHg 35%
    21:00 +24°C° 0 mm 3 mps 742 mmHg 38%
    22:00 +22°C° 0 mm 3 mps 742 mmHg 48%
    23:00 +21°C° 0 mm 3 mps 742 mmHg 57%

    20 September, Friday

    Time Temperature Precipitation Wind Pressure Humidity
    00:00 +20°C° 0 mm 3 mps 742 mmHg 66%
    01:00 +20°C° 0 mm 2 mps 741 mmHg 68%
    02:00 +19°C° 0 mm 2 mps 741 mmHg 69%
    03:00 +20°C° 0 mm 1 mps 741 mmHg 71%
    04:00 +19°C° 0 mm 1 mps 741 mmHg 71%
    05:00 +19°C° 0 mm 1 mps 740 mmHg 72%
    06:00 +19°C° 0 mm 1 mps 740 mmHg 72%
    07:00 +21°C° 0 mm 1 mps 740 mmHg 68%
    08:00 +23°C° 0 mm 2 mps 740 mmHg 63%
    09:00 +24°C° 0 mm 2 mps 739 mmHg 58%
    10:00 +25°C° 0 mm 3 mps 739 mmHg 55%
    11:00 +26°C° 0 mm 3 mps 738 mmHg 52%
    12:00 +27°C° 0 mm 3 mps 738 mmHg 50%
    13:00 +28°C° 0 mm 2 mps 737 mmHg 48%
    14:00 +28°C° 0 mm 2 mps 737 mmHg 46%
    15:00 +29°C° 0 mm 2 mps 736 mmHg 44%
    16:00 +27°C° 0 mm 2 mps 736 mmHg 49%
    17:00 +26°C° 0 mm 2 mps 736 mmHg 53%
    18:00 +24°C° 0 mm 1 mps 735 mmHg 57%
    19:00 +24°C° 0 mm 1 mps 735 mmHg 59%
    20:00 +23°C° 0 mm 1 mps 735 mmHg 61%
    21:00 +22°C° 0 mm 1 mps 735 mmHg 63%
    22:00 +22°C° 0 mm 1 mps 735 mmHg 63%
    23:00 +22°C° 0 mm 1 mps 735 mmHg 64%

    21 September, Saturday

    Time Temperature Precipitation Wind Pressure Humidity
    00:00 +22°C° 0 mm 1 mps 735 mmHg 64%
    01:00 +21°C° 0 mm 1 mps 735 mmHg 65%
    02:00 +21°C° 0 mm 1 mps 734 mmHg 67%
    03:00 +21°C° 0 mm 1 mps 734 mmHg 68%
    04:00 +21°C° 0 mm 1 mps 734 mmHg 69%
    05:00 +20°C° 0 mm 1 mps 734 mmHg 70%
    06:00 +20°C° 0 mm 1 mps 735 mmHg 71%
    07:00 +21°C° 0 mm 2 mps 735 mmHg 64%
    08:00 +24°C° 0 mm 3 mps 735 mmHg 57%
    09:00 +26°C° 0 mm 4 mps 736 mmHg 50%
    10:00 +27°C° 0 mm 4 mps 736 mmHg 46%
    11:00 +28°C° 0 mm 5 mps 736 mmHg 41%
    12:00 +29°C° 0 mm 5 mps 736 mmHg 37%
    13:00 +28°C° 0 mm 6 mps 736 mmHg 36%
    14:00 +28°C° 0 mm 7 mps 736 mmHg 34%
    15:00 +28°C° 0 mm 8 mps 736 mmHg 32%
    16:00 +26°C° 0 mm 7 mps 736 mmHg 35%
    17:00 +23°C° 0 mm 6 mps 737 mmHg 38%
    18:00 +21°C° 0 mm 5 mps 738 mmHg 41%
    19:00 +21°C° 0 mm 4 mps 738 mmHg 43%
    20:00 +20°C° 0 mm 4 mps 739 mmHg 44%
    21:00 +19°C° 0 mm 3 mps 740 mmHg 45%
    22:00 +19°C° 0 mm 3 mps 740 mmHg 47%
    23:00 +18°C° 0 mm 3 mps 740 mmHg 48%
    Show more